Vertical_Velocity
-2 -1 -1 -1 0 1 -1 -0 -1 -1 -2 -0 -1 -2 -0 -2 -1 -2 -3 -1 -2 -0 1 1 1 -1 -2 4 -8 -7 1 5 7 -7 2 2 -14 -3 -0 4 8 -0 2 -1 -1
-1 -0 -2 -1 -1 -1 -1 -0 -0 -1 -1 -1 -2 -1 -2 -2 -2 -2 -1 -1 0 -2 -0 1 4 6 -3 -2 -5 -4 2 -4 5 3 -4 3 15 30 1 -6 -1 8 2 0 -0
0 -2 -1 0 -0 -0 -2 -1 -1 -1 -0 -1 -2 -1 -2 -1 0 -2 -1 -1 -1 -1 -0 1 1 4 -1 -5 -4 -5 -0 -2 -15 2 -4 -6 -3 -2 1 -16 -10 6 2 8 -0
-1 -0 -2 -1 -1 -0 -2 -2 -0 1 -0 1 -0 -1 -1 -1 -1 0 -0 -0 -0 -1 -0 -1 0 5 -0 -4 -0 31 -4 2 -7 4 10 3 12 -9 -2 2 0 -9 -1 2 6
-1 -1 0 -0 -2 -2 -0 -1 -0 -1 -2 -1 -2 -0 -1 -1 -0 -0 -1 -0 -0 -1 -0 -0 0 1 -1 -2 5 -5 -8 10 1 9 4 9 2 3 33 12 -2 -8 -7 4 3
-0 1 -0 -1 -0 -1 -3 -3 -3 -1 -0 -0 -1 -1 0 -1 -2 1 -1 -1 -2 -1 0 -1 -3 1 4 -3 1 -2 0 4 1 -0 3 -4 11 -9 1 6 -2 6 -2 5 4
-1 -3 -3 -2 -1 0 0 0 -0 -1 -1 -2 -1 -1 0 -5 -2 -3 -1 -1 -0 0 0 1 -2 -2 -1 1 -3 2 -1 -2 -0 -1 8 -20 4 -4 2 9 -1 6 -10 6 3
0 -0 -0 -0 -1 -0 0 -1 -2 -2 -2 -2 -1 3 2 8 -2 1 -1 -1 -1 -0 -0 -0 -1 4 1 -1 -0 -6 3 1 3 1 11 1 6 -1 -10 4 -3 -10 -25 14 -0
-1 -2 -2 -2 -2 -1 -2 -2 -1 0 -1 -1 1 1 -4 1 -1 -1 -0 -1 -0 -0 -1 -1 -0 -2 0 1 -1 -3 -2 0 -2 2 0 6 -1 8 8 -13 7 19 4 -6 5
-1 -0 -0 -1 -2 -2 -2 -2 -3 -2 -1 -2 -1 -3 4 -3 0 2 1 -0 1 -2 -2 -1 -0 -1 -0 -0 -1 -5 3 -1 -1 2 -3 4 3 10 20 -8 -0 1 4 -6 2
-2 -1 -2 -1 -1 -2 -2 -2 -1 1 -3 -3 3 -4 3 1 -0 0 -1 -1 -2 -1 1 -1 -3 2 1 0 -3 -1 5 -2 -2 -0 -3 1 3 6 10 -3 2 -9 4 -20 8
-1 -1 -2 -1 -2 -2 -2 1 -7 -0 -3 -3 1 -2 0 -3 -1 -0 1 0 -1 0 -0 -2 2 0 -0 -1 -6 -4 -0 8 -2 -1 0 -5 4 -0 5 13 4 -12 -3 12 -2
-1 -2 -1 -1 -2 -2 -3 0 -3 -2 -0 -1 -2 -3 -2 1 -0 -1 0 -1 1 -1 -2 -1 2 -1 -1 1 1 -6 -4 4 22 9 10 -2 -2 -3 8 8 -1 7 5 16 -8
-2 -2 -1 -1 -1 -1 3 -3 -2 -2 -2 -4 0 -1 -1 -0 -4 -0 1 -0 -2 2 -0 -2 0 -1 -2 -7 -1 -2 -3 2 3 -2 -9 8 -15 -6 7 13 -3 -7 -1 -1 -0
-2 -2 -2 -2 -1 -0 -6 -1 -2 -1 -5 -2 8 1 0 -0 1 -2 -1 -2 2 3 -6 12 0 -1 -5 -6 11 -8 1 1 2 7 -5 1 -6 -2 1 2 -6 5 -17 -5 1
-2 -2 -2 -1 0 -1 -1 -1 -1 -1 -0 -8 2 -1 1 1 1 2 -0 -1 -2 -0 -3 2 -3 -2 -2 0 -1 -1 -5 -6 -3 -5 -9 2 4 5 -1 5 2 -17 -4 -6 5
-1 -2 -1 -1 -2 -1 -1 -1 -2 6 -6 -6 -1 0 -2 3 1 -3 2 0 1 -1 2 -1 1 -1 1 -5 -4 -2 0 -1 -4 -9 -15 0 7 16 13 -11 8 -5 -15 6 -0
-2 -2 -1 -1 -2 -0 0 -1 11 6 5 2 -5 -8 4 -1 4 -0 -2 2 0 -1 -0 -2 -3 3 3 1 -0 3 1 0 -6 -5 -9 13 17 -8 -1 14 -5 -1 5 -7 -2
-2 -1 -1 -2 -2 -1 -1 2 9 -4 -6 2 -2 0 -1 1 -5 -1 1 -3 -0 -0 -1 -5 -1 -5 5 8 -1 6 -2 2 -2 -1 0 13 23 -1 -4 -7 13 -9 8 -1 -5
-1 -2 -1 -1 -1 -1 -0 7 11 2 4 -1 -0 1 -3 -4 7 3 -3 2 -1 -1 -0 8 -6 -0 -3 2 3 -4 6 -1 2 -4 -9 3 -1 -2 -8 -14 8 22 3 6 -3
-1 -2 -3 -1 -1 -1 2 2 -10 -10 -1 -1 -1 -4 -1 -8 -4 3 -2 2 1 -1 -0 2 -1 9 -1 1 2 -2 -4 2 1 -9 -6 -0 -1 -1 -7 24 7 8 0 4 3
0 -2 -0 -0 -1 2 2 -2 3 -3 7 2 0 -3 3 -0 -9 -4 -4 -4 10 14 4 4 -8 -3 -5 1 -0 23 -2 -4 4 1 -7 -0 -9 2 -3 5 -15 -5 30 9 -7
-2 -4 -3 -1 -2 -0 -2 -3 -3 -3 0 0 -1 -1 -2 7 4 2 -3 5 17 6 -7 1 -2 -8 1 -5 1 -3 8 1 -3 5 -2 8 -5 17 -4 -9 -2 -4 -15 2 5
-3 -1 -2 -3 -1 -2 -1 4 -0 1 -4 -1 1 1 3 1 -1 3 3 18 -7 -8 2 1 1 -0 -1 -1 9 -2 5 -1 -5 -3 -6 -3 15 12 -5 3 2 -6 -13 16 2
-2 -2 5 -3 -3 -2 -1 -3 -3 0 -1 -0 1 1 1 3 3 -1 6 21 -10 0 4 -1 -1 -5 -3 -0 -7 -14 1 12 16 -7 -17 8 -5 36 31 -7 -16 -30 -10 4 2
-3 -4 -1 -2 -0 -1 -1 1 -0 -0 -1 1 -0 1 3 5 -1 0 12 -10 -8 -5 -2 -9 -8 1 -6 8 5 -16 -7 -9 1 5 -2 9 -0 -12 -10 29 17 -35 -34 -1 -2
-1 0 -0 -3 -2 -2 -5 -5 -4 -2 4 1 -3 -4 -0 9 2 -4 -7 -5 -2 -5 -2 0 2 -24 -0 3 -4 -8 -5 -5 -8 2 8 -4 34 -14 16 5 -13 -11 61 14 8
Height
5895 5897 5899 5900 5902 5903 5904 5905 5906 5908 5909 5910 5911 5912 5912 5914 5914 5915 5915 5916 5917 5917 5917 5917 5917 5916 5916 5919 5917 5919 5923 5922 5919 5918 5921 5922 5917 5916 5916 5917 5914 5912 5911 5910 5909
5893 5895 5897 5898 5900 5901 5903 5904 5905 5906 5908 5909 5910 5910 5911 5913 5913 5914 5915 5915 5916 5917 5917 5918 5919 5919 5917 5916 5917 5919 5922 5922 5921 5921 5919 5919 5918 5909 5920 5920 5914 5915 5914 5912 5910
5891 5893 5894 5896 5898 5899 5901 5903 5904 5905 5906 5908 5908 5909 5910 5911 5912 5912 5913 5914 5915 5915 5916 5918 5917 5918 5917 5916 5919 5922 5924 5921 5920 5919 5916 5916 5912 5913 5918 5919 5913 5914 5913 5913 5912
5889 5891 5893 5894 5895 5897 5899 5900 5901 5903 5904 5905 5906 5907 5908 5910 5911 5911 5912 5913 5914 5914 5915 5916 5917 5919 5917 5918 5916 5918 5922 5923 5919 5920 5925 5921 5911 5913 5919 5915 5914 5912 5914 5915 5913
5887 5887 5889 5891 5893 5894 5896 5898 5899 5901 5902 5903 5904 5905 5907 5909 5909 5909 5910 5911 5912 5913 5914 5915 5916 5916 5914 5915 5919 5915 5920 5922 5922 5926 5925 5923 5915 5912 5912 5907 5908 5908 5913 5914 5913
5884 5885 5886 5887 5889 5892 5893 5895 5896 5898 5899 5900 5902 5903 5905 5907 5906 5908 5909 5910 5911 5911 5912 5913 5914 5914 5915 5913 5917 5919 5920 5921 5922 5922 5921 5916 5916 5914 5913 5910 5908 5911 5913 5913 5913
5882 5883 5883 5884 5886 5887 5889 5890 5892 5894 5895 5897 5899 5901 5902 5903 5904 5906 5907 5908 5908 5910 5910 5911 5911 5912 5912 5912 5912 5916 5919 5919 5920 5921 5923 5913 5917 5917 5916 5915 5915 5914 5913 5916 5913
5878 5879 5880 5882 5883 5884 5886 5887 5888 5890 5891 5893 5894 5896 5898 5901 5901 5903 5904 5906 5907 5908 5909 5909 5910 5911 5910 5910 5911 5913 5918 5919 5920 5920 5922 5919 5918 5916 5917 5918 5915 5912 5908 5916 5914
5874 5875 5876 5877 5879 5880 5882 5883 5885 5886 5888 5889 5891 5892 5893 5897 5898 5899 5901 5903 5904 5905 5906 5906 5908 5908 5909 5910 5911 5912 5915 5915 5915 5918 5918 5918 5917 5919 5914 5909 5914 5913 5913 5911 5914
5869 5871 5872 5873 5874 5876 5877 5879 5881 5883 5885 5886 5887 5890 5891 5893 5893 5895 5896 5898 5900 5902 5903 5904 5904 5906 5907 5909 5910 5909 5915 5915 5916 5918 5915 5916 5916 5920 5920 5912 5911 5914 5914 5912 5913
5865 5866 5868 5869 5870 5871 5873 5875 5879 5881 5880 5881 5884 5883 5886 5887 5888 5889 5890 5893 5896 5898 5900 5900 5902 5904 5905 5906 5906 5908 5913 5913 5915 5915 5912 5915 5915 5915 5915 5912 5910 5912 5915 5908 5914
5860 5861 5863 5864 5866 5867 5869 5871 5871 5875 5876 5877 5879 5879 5881 5881 5883 5884 5886 5890 5891 5895 5895 5896 5900 5900 5901 5902 5902 5906 5909 5913 5913 5915 5913 5912 5916 5915 5913 5912 5908 5904 5906 5913 5909
5853 5855 5857 5858 5860 5862 5864 5866 5867 5869 5871 5873 5874 5874 5876 5878 5879 5880 5882 5884 5887 5888 5891 5892 5896 5896 5897 5900 5902 5902 5906 5911 5912 5915 5914 5913 5914 5913 5916 5913 5908 5904 5910 5913 5908
5848 5849 5851 5852 5856 5857 5859 5860 5862 5863 5866 5868 5869 5869 5873 5873 5875 5876 5878 5880 5881 5886 5886 5888 5891 5891 5893 5895 5900 5902 5904 5907 5910 5911 5909 5913 5910 5912 5914 5915 5911 5910 5906 5909 5910
5842 5844 5845 5847 5849 5851 5853 5855 5856 5858 5860 5862 5866 5867 5867 5870 5871 5873 5874 5876 5879 5881 5881 5887 5886 5887 5888 5892 5899 5898 5901 5902 5904 5907 5906 5907 5907 5906 5909 5911 5910 5909 5900 5906 5911
5838 5839 5840 5842 5843 5845 5847 5849 5852 5855 5854 5853 5860 5861 5863 5865 5867 5868 5870 5872 5874 5875 5877 5881 5882 5883 5886 5889 5892 5894 5896 5896 5899 5900 5900 5904 5905 5905 5905 5905 5905 5903 5899 5906 5911
5833 5834 5835 5836 5838 5839 5841 5844 5848 5850 5850 5851 5851 5855 5857 5861 5862 5863 5866 5868 5870 5872 5874 5876 5878 5879 5882 5883 5887 5889 5891 5893 5895 5896 5898 5900 5905 5904 5901 5898 5899 5897 5900 5906 5908
5827 5828 5829 5831 5832 5833 5835 5839 5844 5846 5845 5847 5845 5847 5854 5855 5858 5859 5860 5864 5866 5867 5869 5870 5873 5877 5879 5880 5884 5886 5888 5889 5891 5894 5896 5900 5900 5896 5896 5896 5896 5894 5898 5901 5902
5823 5824 5824 5826 5827 5828 5831 5834 5836 5833 5835 5839 5839 5844 5847 5851 5853 5854 5856 5858 5861 5863 5865 5865 5868 5871 5876 5880 5881 5883 5881 5887 5887 5890 5891 5894 5897 5892 5895 5889 5889 5890 5897 5898 5899
5819 5819 5820 5821 5821 5823 5826 5829 5831 5829 5830 5832 5835 5840 5842 5846 5851 5852 5851 5854 5856 5858 5860 5863 5861 5865 5869 5871 5874 5874 5880 5881 5882 5884 5884 5887 5888 5890 5891 5887 5887 5892 5895 5897 5896
5815 5815 5816 5816 5817 5819 5821 5823 5822 5824 5825 5830 5831 5835 5836 5839 5840 5845 5848 5850 5852 5853 5854 5855 5858 5864 5864 5864 5868 5871 5872 5875 5877 5878 5879 5882 5885 5888 5891 5894 5894 5895 5897 5895 5894
5811 5812 5812 5812 5815 5815 5818 5818 5820 5819 5823 5825 5826 5829 5832 5834 5834 5838 5840 5845 5849 5850 5850 5851 5852 5852 5857 5861 5863 5869 5867 5869 5871 5874 5875 5878 5878 5882 5884 5884 5884 5882 5891 5893 5892
5808 5807 5808 5809 5810 5811 5812 5812 5813 5816 5818 5820 5821 5823 5825 5831 5833 5833 5833 5839 5841 5840 5842 5842 5843 5843 5847 5852 5856 5858 5863 5864 5866 5868 5871 5875 5877 5880 5880 5881 5881 5881 5869 5888 5891
5805 5805 5805 5804 5805 5807 5808 5811 5811 5811 5811 5814 5816 5817 5820 5822 5825 5827 5828 5832 5830 5831 5831 5833 5836 5838 5839 5844 5851 5853 5857 5860 5861 5860 5863 5866 5874 5875 5876 5875 5877 5879 5876 5883 5887
5802 5802 5803 5802 5802 5803 5803 5804 5805 5807 5807 5807 5809 5811 5813 5815 5816 5818 5820 5823 5823 5822 5821 5821 5825 5830 5833 5835 5839 5842 5845 5850 5854 5856 5858 5861 5867 5871 5873 5872 5870 5876 5875 5880 5880
5800 5799 5799 5799 5799 5800 5800 5801 5801 5801 5801 5802 5802 5804 5805 5807 5808 5808 5810 5808 5808 5809 5811 5812 5816 5817 5821 5827 5829 5829 5835 5840 5845 5848 5851 5856 5859 5859 5862 5866 5867 5864 5866 5873 5875
5796 5796 5796 5796 5796 5796 5795 5795 5795 5795 5797 5796 5796 5797 5797 5800 5798 5797 5799 5800 5800 5804 5805 5807 5807 5809 5811 5818 5819 5819 5828 5833 5836 5841 5844 5848 5855 5854 5855 5858 5859 5856 5867 5869 5868